Pagrindinis puslapis
METAR-TAF:

METAR-TAF

Oro uostai :

Hemavan, Švedija

platuma: 65-48-22N, ilguma: 015-04-58E, Aukštis: 458 m

Dabartinis oras

Ataskaita buvo paskelbta 26 minutes, ne 06:50 UTC
Vėjas 7 kt iš Pietų/Pietryčių
Temperatūra 8°C
Drėgmė 66%
Slėgis 1015 hPa
Matomumas 10 km arba daugiau

METAR: ESUT 200650Z AUTO 15007KT 9999 NCD 08/02 Q1015

Laikas: 09:16 (07:16 UTC)


TAF: trūkstamas

Orai ataskaitas ir orų prognozės (METAR, TAF).

turimą stotys yra geltonos ir raudonos taškus žemėlapyje.

Perkelti pele per norėdami pamatyti stoties vardą.

Tada spustelėkite, norėdami matyti oro stebėjimo ir prognozės.

Norėdami pakeisti žemėlapį: spustelėkite ant žalios mygtukų su juodo kryžiaus žemyn,; žalią mygtuką su brūkšneliu, jei norite nutolinti; arba žalių rodyklių gretimoms žemėlapius.


METAR-TAF: